Theta_e
326 325 324 323 307 305 297 302 306 303 302 306 310 306 304 301 301 299 307 308 309 309 310 314 319 321 322 323 324 324 325 325 326 326 325 325 325 325 325 325 325 326 327 328 328 327 327 327 325
320 321 322 318 302 295 296 305 301 302 304 308 309 307 305 297 304 304 304 308 308 309 310 312 317 320 321 322 321 323 323 323 324 323 324 324 324 323 324 323 325 326 326 327 327 327 325 324 324
321 319 312 308 301 294 296 303 301 303 306 306 304 306 304 299 303 303 306 307 308 308 309 311 316 319 320 320 321 321 321 322 323 323 322 321 321 322 321 322 323 325 325 326 326 325 325 324 324
317 315 311 301 299 302 304 303 302 302 303 306 306 300 301 304 303 304 307 307 306 308 309 312 315 317 318 319 319 320 320 321 320 320 320 320 321 321 320 321 323 323 324 325 324 325 325 326 326
316 312 302 299 300 304 306 306 305 303 304 303 304 299 299 302 305 306 306 307 305 306 308 310 314 315 316 317 318 318 318 318 319 319 318 318 319 319 320 319 322 323 324 325 324 326 326 326 324
309 310 299 296 300 305 305 308 307 306 306 302 302 301 298 303 303 303 305 305 305 306 309 311 313 313 314 315 315 316 316 316 316 316 317 317 318 318 319 318 320 320 321 323 324 325 325 325 325
308 305 300 300 300 303 305 307 305 306 305 302 303 297 297 300 303 304 303 304 306 306 308 308 309 312 315 314 313 312 313 314 315 315 315 316 316 315 316 315 317 319 320 321 322 323 323 326 326
307 306 300 299 299 300 306 306 307 305 299 303 301 296 293 300 304 304 303 303 304 306 307 307 308 309 309 310 311 310 312 313 312 312 312 316 314 312 313 312 315 318 318 319 321 322 322 325 326
311 301 297 299 299 300 306 302 303 302 300 300 301 298 300 303 304 302 302 302 303 306 305 306 307 308 309 309 310 313 314 314 309 306 310 307 304 304 304 310 312 314 315 317 319 321 321 321 317
304 300 298 300 299 299 304 303 301 299 299 298 298 299 302 302 300 300 298 299 301 302 304 305 306 307 308 310 308 306 306 304 302 300 299 301 300 301 303 304 308 308 310 313 316 319 316 312 311
304 299 300 299 300 301 300 298 300 297 297 299 298 297 299 299 300 299 299 300 300 303 304 305 306 306 305 305 304 302 301 300 299 297 297 298 298 297 297 297 298 299 304 303 307 313 311 307 305
300 299 301 300 298 299 297 299 296 297 295 299 300 300 299 299 299 299 299 300 301 303 304 305 305 305 303 303 300 299 297 297 295 295 295 295 295 294 294 295 294 295 297 299 307 310 310 305 302
301 297 298 298 297 297 298 295 294 294 297 299 300 301 299 299 299 299 301 301 302 302 304 303 304 302 302 300 298 297 295 295 294 293 294 294 293 293 294 293 293 294 296 297 306 309 308 306 300
299 298 296 297 296 296 295 294 294 294 298 297 298 298 298 299 298 298 299 300 302 303 303 303 302 301 300 297 296 294 293 293 293 292 293 294 293 293 293 293 293 293 294 296 302 308 307 305 302
298 294 294 294 295 294 294 292 292 294 295 296 296 296 298 298 299 298 299 300 301 303 303 302 300 299 297 296 294 293 293 293 291 292 292 293 294 293 292 292 292 292 294 295 298 303 307 308 304
294 293 289 293 294 293 291 288 293 295 293 293 294 294 296 297 298 298 300 300 302 302 302 301 301 297 295 293 292 292 292 291 290 291 291 292 293 293 292 291 291 292 293 294 294 296 298 303 302
291 285 289 288 293 292 290 288 290 292 291 291 293 294 295 295 296 298 300 300 301 302 302 300 298 295 294 293 292 291 291 290 290 289 290 291 292 293 291 291 291 292 292 292 293 293 292 292 296
286 285 287 287 288 288 288 288 291 292 292 291 291 293 294 295 296 298 299 300 301 301 302 300 298 295 294 293 292 291 290 289 289 288 289 290 291 292 291 291 291 291 291 291 292 291 292 291 291
290 289 286 287 289 287 287 288 290 291 290 290 290 291 293 294 297 298 299 299 299 300 300 300 297 296 295 295 292 289 287 288 288 288 289 289 290 291 290 290 290 290 290 289 291 291 290 290 291
288 285 284 286 289 287 287 286 290 291 291 292 292 292 293 294 295 297 298 298 298 298 299 300 298 298 297 295 292 289 287 287 287 289 288 289 289 290 290 289 289 289 288 288 289 289 289 290 290
288 286 285 286 287 286 284 285 286 289 292 293 293 292 293 292 295 297 297 297 297 296 297 299 298 298 295 292 291 289 289 288 287 287 286 287 289 289 289 289 289 288 288 287 288 288 287 285 288
287 291 289 288 284 280 285 281 288 291 290 293 293 293 293 293 294 297 297 296 296 296 297 298 298 297 294 292 291 288 288 285 285 286 286 287 288 288 289 289 288 288 288 287 288 288 286 286 284
288 290 288 288 283 282 282 279 285 289 290 291 292 293 293 293 294 295 296 297 298 297 295 295 295 294 294 293 290 288 286 286 286 286 285 286 286 287 288 288 287 287 287 287 286 286 285 286 285
292 290 289 286 285 277 283 282 284 288 291 291 292 291 292 292 292 295 297 298 297 295 294 293 292 291 291 289 289 288 286 285 285 285 284 284 285 286 287 288 287 287 286 286 286 287 285 285 286
291 287 279 276 275 277 284 280 284 290 290 291 291 291 291 292 292 294 295 296 295 294 293 293 292 290 289 288 288 288 287 286 285 285 284 284 284 284 285 285 285 285 286 286 287 287 285 285 285
288 287 283 274 277 279 281 279 286 289 291 292 293 293 293 292 294 294 295 296 295 294 293 292 291 289 289 288 288 288 288 286 286 285 285 284 284 284 285 285 285 285 286 286 287 286 285 286 285
286 282 289 283 276 279 282 286 289 289 290 291 291 293 292 293 293 294 296 296 294 293 293 292 291 290 289 288 287 287 286 286 285 285 285 284 284 286 285 284 284 284 285 285 286 285 285 285 285
287 289 281 280 273 274 281 282 285 284 287 290 291 291 292 293 293 294 294 295 295 294 293 292 292 289 289 288 287 287 286 286 285 285 284 284 284 285 284 283 283 283 284 285 285 285 285 284 284
284 282 284 286 284 280 279 282 287 287 290 290 291 292 292 291 293 293 294 295 295 294 293 292 291 289 288 288 287 286 285 285 285 284 284 283 284 284 283 283 283 282 283 283 283 284 284 284 284
286 285 287 281 280 282 282 283 289 291 292 293 292 293 292 292 293 294 294 294 294 293 292 291 291 289 288 288 287 286 285 284 283 283 283 283 283 283 283 282 282 282 283 283 283 282 283 282 282
Wind_Speed
15 10 5 3 2 7 6 8 12 9 5 4 7 6 4 7 4 3 5 5 6 6 7 12 15 14 14 15 16 17 17 17 17 17 18 18 18 18 19 19 17 17 17 18 18 18 19 20 19
7 10 3 4 3 8 5 9 11 9 8 5 5 1 1 5 7 7 6 4 5 6 6 10 13 13 14 15 15 16 16 17 17 18 18 18 18 18 19 18 19 19 20 19 19 19 18 18 18
8 8 3 3 1 7 6 12 11 10 9 7 4 2 3 5 6 5 5 3 7 6 6 8 11 12 13 15 16 16 16 17 18 17 18 19 18 19 18 18 20 20 20 20 20 19 20 19 19
5 3 4 3 8 9 10 9 13 10 3 3 3 6 6 6 3 6 6 6 7 7 6 9 10 12 14 16 15 16 16 16 16 17 17 16 18 19 18 20 20 20 19 19 20 20 20 21 21
3 5 5 3 10 8 10 7 10 5 7 7 3 5 5 6 8 7 7 6 6 7 5 6 8 11 13 15 15 15 15 16 17 17 16 15 18 19 20 19 19 19 20 21 22 22 22 21 20
4 3 4 4 11 7 7 7 7 7 7 4 4 7 5 9 8 6 5 6 6 6 5 5 6 8 10 13 14 14 14 15 15 16 15 14 16 17 19 19 20 20 21 22 22 22 22 21 19
4 4 6 6 9 6 7 4 4 6 7 6 3 3 5 7 9 6 5 6 7 6 6 6 6 7 9 10 11 10 12 14 15 15 17 15 12 17 17 19 19 21 22 22 22 22 22 21 23
4 2 0 5 4 7 5 4 7 7 5 4 4 2 5 8 9 6 5 4 7 6 7 6 5 5 4 4 5 3 10 14 16 17 18 15 15 17 16 17 20 21 21 21 21 22 22 25 25
2 4 4 4 2 7 7 4 3 2 5 3 4 6 8 11 9 6 6 4 5 6 6 5 5 5 4 4 4 2 8 12 16 16 17 11 6 7 10 16 21 22 22 20 21 23 24 23 23
2 4 6 6 8 7 5 2 8 4 6 5 6 5 9 9 7 7 4 5 6 5 6 5 6 6 5 6 6 6 6 5 6 9 9 7 7 7 9 10 18 19 20 20 21 23 23 18 11
4 3 5 8 8 6 5 2 2 4 5 2 10 13 9 7 7 6 6 6 6 5 5 5 5 6 6 4 4 3 3 4 4 8 9 7 6 5 5 5 6 6 11 7 9 11 9 13 10
1 5 6 4 3 2 4 4 3 6 3 5 9 14 10 9 7 7 7 6 6 7 5 5 6 5 5 4 4 5 4 4 4 6 9 6 4 5 6 5 6 5 5 7 7 6 10 13 13
6 5 6 6 3 5 3 3 1 3 10 7 6 10 10 8 8 7 8 6 5 7 6 6 6 6 6 7 5 5 5 4 5 5 7 7 6 5 5 5 5 5 6 5 6 7 7 9 10
5 7 7 4 4 3 3 1 3 2 10 9 6 8 8 8 9 7 7 6 6 6 6 5 6 6 6 5 7 4 4 5 5 5 6 7 6 5 5 5 6 5 5 5 6 5 4 5 5
6 5 4 5 5 2 2 5 7 6 5 7 8 7 8 8 9 8 8 7 7 6 6 7 6 5 6 6 6 4 4 5 5 5 7 8 8 7 6 5 5 5 5 7 5 7 5 4 3
4 2 3 5 5 3 1 3 6 7 7 8 9 8 8 7 8 6 8 8 7 7 7 6 5 6 7 7 5 4 5 5 5 5 5 7 9 8 6 5 5 6 5 6 5 6 7 5 4
4 4 8 3 4 3 5 4 4 6 6 7 8 9 9 7 8 7 8 8 7 8 8 7 7 7 6 6 5 5 7 5 5 5 5 7 8 8 5 5 5 7 6 6 6 5 5 5 7
7 5 1 3 3 2 4 11 7 9 8 8 7 9 9 10 10 9 9 8 7 7 8 7 6 6 6 4 4 5 5 5 5 5 5 7 7 7 6 6 8 6 6 7 8 5 5 5 5
7 8 4 5 2 2 7 10 10 4 7 8 7 6 9 10 10 10 9 8 7 6 6 7 7 6 4 1 3 4 4 4 4 5 7 7 7 8 9 6 7 7 7 8 9 7 7 11 11
1 1 4 3 3 1 5 11 11 8 8 9 9 8 9 9 10 11 10 8 7 6 6 7 7 5 3 4 3 3 4 4 4 4 6 7 8 8 9 7 6 7 6 9 10 10 4 6 11
5 4 3 3 4 2 4 8 3 3 6 7 4 4 4 1 12 13 12 9 8 7 6 5 6 6 6 6 4 4 4 3 4 4 4 6 7 7 8 8 8 8 8 7 8 9 11 6 6
6 5 5 7 2 3 2 5 3 6 6 6 6 6 7 7 5 12 11 9 9 7 7 5 6 6 6 6 5 4 3 3 3 3 4 5 7 7 8 9 8 7 6 9 8 8 8 8 9
2 4 5 5 2 4 4 2 6 1 7 7 6 8 7 6 6 11 10 9 8 8 7 6 6 6 5 1 4 5 6 5 3 4 6 6 6 6 6 7 7 7 6 6 8 8 9 8 8
7 7 7 1 3 1 8 8 6 5 6 6 8 7 6 5 4 6 9 9 8 8 7 6 8 5 4 5 5 7 8 6 4 4 4 4 4 4 6 7 6 6 6 6 6 6 7 7 8
3 5 3 4 2 6 7 4 8 6 6 8 7 6 5 4 4 6 9 8 9 8 7 6 7 6 5 6 6 6 7 7 7 5 4 5 4 4 6 6 6 5 6 6 6 4 5 7 7
7 3 5 8 6 4 3 7 5 7 7 7 5 5 7 6 3 6 7 8 9 8 7 6 7 6 6 7 7 6 7 5 4 5 4 4 4 4 5 5 6 6 6 6 5 3 4 5 6
7 5 1 6 1 3 6 4 2 6 6 6 4 6 7 7 6 7 7 8 8 8 8 8 8 7 7 7 7 6 6 7 6 6 6 4 4 5 5 5 6 6 5 6 5 3 5 5 5
2 1 3 2 4 4 4 3 5 7 8 7 6 5 6 7 7 6 7 7 7 8 7 8 8 8 7 8 6 6 6 7 6 6 6 6 5 5 5 6 5 6 6 6 5 4 5 5 4
3 2 3 1 3 5 4 6 5 13 13 10 7 3 1 3 5 7 6 7 8 8 8 7 8 8 7 7 7 7 6 7 6 6 6 6 5 6 5 6 5 6 5 5 4 5 5 6 6
4 3 6 5 5 2 2 4 9 11 9 8 7 5 3 2 2 6 7 7 7 8 8 7 7 8 7 7 7 7 6 6 6 6 6 6 6 6 6 4 7 5 4 6 4 6 5 6 6
Wind_Direction
296 247 255 279 262 103 310 90 94 120 81 81 57 45 89 38 12 78 84 46 36 25 25 39 8 4 9 12 14 15 14 12 11 11 10 12 11 13 14 11 9 5 1 360 0 355 351 349 339
309 303 256 264 255 34 318 109 79 71 100 107 105 137 137 83 81 115 133 65 50 37 34 42 9 7 14 16 18 18 16 16 17 14 12 11 12 15 16 14 10 10 9 8 6 4 359 355 349
271 275 287 242 277 133 245 80 101 105 113 148 130 55 14 85 58 90 87 53 70 50 43 49 17 16 20 23 21 22 20 19 18 15 18 19 20 20 16 14 14 11 10 10 11 8 5 360 356
300 227 257 275 58 43 97 106 110 118 121 69 108 97 90 30 63 67 90 51 47 61 40 71 32 24 27 25 25 24 20 19 19 17 18 17 20 22 21 17 15 15 14 13 13 12 8 2 360
233 258 259 257 82 96 77 124 131 143 144 140 213 117 87 78 93 103 95 50 56 66 38 88 54 36 33 31 29 25 22 20 18 16 16 19 22 22 22 20 15 17 16 17 19 14 9 5 3
278 254 270 197 92 94 106 173 137 96 103 125 178 131 87 125 132 112 94 79 49 50 56 41 77 60 42 40 35 28 23 21 21 19 14 12 21 22 28 23 20 22 20 19 12 10 10 13 2
243 271 326 71 103 132 113 104 140 130 138 75 341 106 115 161 116 131 105 97 69 42 52 51 32 28 56 62 44 31 26 24 23 18 8 359 18 20 27 23 20 21 19 22 15 17 13 6 0
303 307 22 21 157 93 106 92 1 17 63 113 346 89 157 149 128 130 91 96 101 70 48 41 37 34 24 87 60 20 24 31 27 16 5 7 34 19 24 21 18 23 20 19 18 24 18 9 33
282 292 197 93 64 95 136 121 11 360 119 52 42 54 99 116 142 155 176 159 89 81 56 53 35 31 359 74 47 74 23 35 32 17 4 4 19 11 21 13 21 21 16 16 22 26 21 25 30
246 258 36 32 31 90 165 219 138 182 140 144 117 94 110 139 169 180 137 88 79 65 68 48 36 28 25 31 38 32 27 25 40 24 4 3 17 12 20 11 19 16 12 12 22 33 34 28 33
225 13 101 42 50 5 109 124 96 229 177 182 183 162 159 169 183 147 94 77 75 84 65 43 51 48 16 63 38 38 18 27 27 27 8 356 11 5 15 12 11 5 3 1 10 34 36 41 40
152 57 44 113 33 49 136 72 192 239 117 49 51 145 155 175 172 153 126 123 114 91 82 56 57 48 31 51 46 40 44 29 36 22 14 6 8 7 19 15 5 5 352 357 23 34 43 47 43
242 107 70 79 94 48 28 213 278 232 128 98 104 137 162 172 160 110 100 101 126 102 96 71 54 53 51 33 43 36 38 38 40 30 15 17 9 8 14 12 6 3 356 356 20 41 41 62 55
62 108 113 150 117 75 318 175 43 127 119 132 156 169 164 171 146 130 153 142 117 124 104 94 76 73 64 65 60 44 39 42 36 39 21 18 12 6 14 14 8 358 358 346 359 44 65 72 71
131 110 159 173 158 112 336 263 221 125 138 173 179 182 169 171 149 156 175 141 133 121 124 101 96 74 87 73 65 57 43 48 44 32 25 22 19 6 18 16 1 358 353 353 14 7 35 44 76
186 308 204 95 145 131 219 282 112 144 167 206 181 195 169 179 159 175 128 123 131 128 129 107 104 91 77 72 66 57 48 47 41 34 23 25 20 9 24 15 10 5 2 360 12 23 9 19 25
198 240 212 166 221 101 205 284 150 162 204 233 195 187 168 183 163 165 135 133 145 146 128 130 120 110 103 101 99 76 62 55 43 37 29 22 18 15 25 19 6 15 10 6 3 26 32 5 344
187 219 156 168 150 263 235 262 258 188 187 217 220 184 177 179 178 158 146 142 148 138 141 134 129 126 124 126 114 93 72 62 55 35 33 30 17 19 19 24 18 23 19 16 12 24 31 18 334
322 168 214 105 63 324 237 262 270 260 191 213 249 256 186 178 171 149 145 138 141 140 144 148 140 144 157 163 115 81 76 69 49 50 33 34 27 14 26 27 22 18 32 19 13 2 37 27 2
236 132 84 70 106 160 339 282 255 237 223 197 194 217 218 169 147 148 143 142 152 163 168 157 157 150 114 92 65 105 109 83 95 76 42 36 31 22 36 31 23 18 24 29 22 19 4 40 28
217 221 167 89 170 236 299 285 188 59 69 77 72 36 9 357 161 151 152 151 158 167 171 161 144 149 104 103 95 82 94 94 59 47 47 29 38 25 28 29 32 23 26 26 27 21 30 42 22
205 184 81 124 155 271 180 274 262 141 118 119 129 96 47 5 94 145 147 154 162 166 147 152 126 122 125 158 150 172 134 103 81 90 83 53 40 32 28 34 28 31 29 37 32 33 42 51 40
131 80 150 141 193 43 230 81 256 107 141 154 112 68 62 19 18 142 149 151 153 131 130 126 119 97 84 67 90 81 81 100 114 96 83 75 56 43 38 41 29 35 24 29 43 33 42 49 62
145 94 66 94 130 19 218 154 276 183 141 102 80 70 67 48 50 89 132 135 123 119 129 134 124 120 132 109 106 118 124 123 107 99 85 78 70 47 38 42 40 35 32 26 41 44 48 50 55
173 149 48 11 3 220 358 71 254 136 92 103 105 98 98 106 114 116 126 133 123 132 144 144 136 137 131 112 98 105 112 108 111 106 110 96 68 46 41 46 43 31 38 26 48 31 57 57 58
202 211 162 192 191 199 42 224 245 105 103 108 109 139 131 121 121 136 147 143 137 143 153 157 139 131 127 114 101 90 85 86 86 92 89 87 87 83 67 62 60 46 40 37 39 22 48 67 69
193 199 315 102 17 77 198 214 109 141 129 130 145 121 122 143 154 156 159 151 148 151 163 158 145 141 141 128 120 113 106 104 107 101 101 104 111 102 77 71 70 54 46 61 42 37 51 60 68
310 326 115 305 151 228 223 222 211 184 166 153 143 112 111 153 153 152 163 168 155 151 153 152 145 151 146 132 132 129 128 122 126 114 107 106 108 104 96 81 70 61 56 54 44 37 49 55 56
172 197 229 195 172 181 167 247 324 173 158 150 152 148 77 71 132 150 165 166 149 147 152 155 153 150 145 143 141 133 129 127 124 120 122 119 111 101 94 94 80 68 59 65 51 66 51 54 55
350 265 186 151 216 222 120 269 325 133 127 127 144 135 128 125 114 147 157 161 155 155 155 160 158 151 150 146 134 132 132 135 128 130 127 128 121 113 104 98 88 67 61 58 64 69 47 54 52